Weather History for Clinton-Sherman, OK

Change the Weather History Date:

Monday, September 23, 2013

  Actual Average Record
Temperature  
Mean Temperature 70 °F -  
Max Temperature 86 °F 81 °F 93 °F (2005)
Min Temperature 57 °F 56 °F 52 °F (2000)
Cooling Degree Days 6    
Growing Degree Days 20 (Base 50)    
Moisture  
Dew Point 48 °F    
Average Humidity 47    
Maximum Humidity 74    
Minimum Humidity 26    
Precipitation  
Precipitation 0.00 in - - ()
Sea Level Pressure  
Sea Level Pressure 29.76 in    
Wind  
Wind Speed 16 mph (SSE)    
Max Wind Speed 29 mph    
Max Gust Speed 36 mph    
Visibility 10 miles    
Events      
Averages and records for this station are not official NWS values.
T = Trace of Precipitation, MM = Missing Value Source: NWS Daily Summary

Daily Weather History Graph

Daily Weather History Graph

Search for Another Location

Airport:

Trip Planner

Search our weather history database for the weather conditions in past years. The results will help you decide how hot, cold, wet, or windy it might be!

Date:

Astronomy

Sep. 23, 2013 Rise Set
Actual Time 7:25 AM CDT 7:31 PM CDT
Civil Twilight 7:00 AM CDT 7:57 PM CDT
Nautical Twilight 6:30 AM CDT 8:26 PM CDT
Astronomical Twilight 6:00 AM CDT 8:56 PM CDT
Moon 10:15 PM CDT (9/23) 11:36 AM CDT (9/23)
Length of Visible Light 12h 56m
Length of Day
12h 05m
Waning Gibbous, 81% of the Moon is Illuminated
Sep 23
Waning Gibbous
Sep 26
Last Quarter
Oct 4
New
Oct 11
First Quarter
Oct 18
Full

Hourly Weather History & Observations

Time (CDT) Temp. Dew Point Humidity Pressure Visibility Wind Dir Wind Speed Gust Speed Precip Events Conditions
12:53 AM 64.9 °F 48.0 °F 54% 29.77 in 10.0 mi SSE 17.3 mph - N/A   Clear
1:53 AM 63.0 °F 48.0 °F 58% 29.74 in 10.0 mi SSE 19.6 mph - N/A   Clear
2:53 AM 62.1 °F 48.9 °F 62% 29.75 in 10.0 mi SSE 16.1 mph - N/A   Clear
3:53 AM 61.0 °F 48.9 °F 64% 29.76 in 10.0 mi South 11.5 mph - N/A   Clear
4:53 AM 60.1 °F 48.9 °F 67% 29.76 in 10.0 mi SSE 13.8 mph - N/A   Clear
5:53 AM 59.0 °F 48.9 °F 69% 29.76 in 10.0 mi SSE 12.7 mph - N/A   Clear
6:53 AM 57.0 °F 48.9 °F 74% 29.79 in 10.0 mi South 11.5 mph - N/A   Clear
7:53 AM 59.0 °F 48.9 °F 69% 29.79 in 10.0 mi SSE 13.8 mph - N/A   Clear
8:53 AM 62.1 °F 50.0 °F 65% 29.80 in 10.0 mi South 16.1 mph - N/A   Clear
9:53 AM 66.9 °F 48.9 °F 52% 29.79 in 10.0 mi South 20.7 mph - N/A   Clear
10:53 AM 72.0 °F 48.0 °F 43% 29.78 in 10.0 mi South 24.2 mph 32.2 mph N/A   Clear
11:53 AM 75.9 °F 48.0 °F 37% 29.75 in 10.0 mi South 26.5 mph 34.5 mph N/A   Clear
12:53 PM 79.0 °F 46.9 °F 32% 29.71 in 10.0 mi South 28.8 mph 35.7 mph N/A   Clear
1:53 PM 84.0 °F 46.0 °F 26% 29.70 in 10.0 mi South 24.2 mph 31.1 mph N/A   Clear
2:53 PM 84.0 °F 46.0 °F 26% 29.70 in 10.0 mi South 19.6 mph 31.1 mph N/A   Clear
3:53 PM 84.9 °F 46.9 °F 27% 29.71 in 10.0 mi South 18.4 mph 28.8 mph N/A   Clear
4:53 PM 84.9 °F 46.9 °F 27% 29.70 in 10.0 mi South 15.0 mph 25.3 mph N/A   Clear
5:53 PM 84.9 °F 48.0 °F 28% 29.72 in 10.0 mi South 11.5 mph - N/A   Clear
6:53 PM 82.9 °F 48.0 °F 29% 29.74 in 10.0 mi South 10.4 mph - N/A   Clear
7:53 PM 75.9 °F 50.0 °F 40% 29.76 in 10.0 mi SSE 9.2 mph - N/A   Clear
8:53 PM 73.0 °F 48.9 °F 42% 29.80 in 10.0 mi SSE 4.6 mph - N/A   Clear
9:53 PM 71.1 °F 48.9 °F 45% 29.83 in 10.0 mi SE 3.5 mph - N/A   Clear
10:53 PM 71.1 °F 50.0 °F 47% 29.85 in 10.0 mi SSE 5.8 mph - N/A   Clear
11:53 PM 73.0 °F 50.0 °F 44% 29.88 in 10.0 mi North 8.1 mph 20.7 mph N/A   Clear